| time (UTC) | temp F | wind direction | speed knots | gust knots | rain 1hr in | rain 24hr in | rain mn in | humidity % | barometer mb |
| 20260504180032 | 63 | 322 | 1.7 | 4.3 | 0.03 | 0.06 | 0.06 | 82 | 1004.6 |
| 20260504175018 | 64 | 80 | 1.7 | 5.2 | 0.03 | 0.06 | 0.06 | 82 | 1004.8 |
| 20260504174043 | 64 | 339 | 3.5 | 6.1 | 0.02 | 0.06 | 0.05 | 82 | 1004.7 |
| 20260504173026 | 65 | 336 | 3.5 | 5.2 | 0.02 | 0.06 | 0.05 | 80 | 1004.4 |
| 20260504172031 | 66 | 341 | 4.3 | 6.1 | 0.01 | 0.05 | 0.04 | 76 | 1004.4 |
| 20260504171017 | 66 | 330 | 3.5 | 5.2 | 0.00 | 0.04 | 0.03 | 76 | 1005.0 |
| 20260504151032 | 68 | 349 | 2.6 | 5.2 | 0.01 | 0.03 | 0.02 | 61 | 1006.0 |
| 20260504141021 | 68 | 342 | 5.2 | 7.0 | 0.01 | 0.02 | 0.01 | 64 | 1006.3 |
| 20260504081027 | 59 | 0.0 | 0.0 | 0.00 | 0.01 | 0.00 | 82 | 1007.5 | |
| 20260504050017 | 61 | 335 | 2.6 | 2.6 | 0.00 | 0.01 | 0.00 | 77 | 1007.1 |
| 20260504045041 | 61 | 335 | 2.6 | 2.6 | 0.00 | 0.01 | 0.01 | 80 | 1007.1 |
| 20260504044025 | 62 | 0.0 | 0.0 | 0.00 | 0.01 | 0.01 | 75 | 1007.1 | |
| 20260504043049 | 63 | 326 | 2.6 | 3.5 | 0.00 | 0.01 | 0.01 | 74 | 1007.1 |
| 20260504042036 | 64 | 338 | 2.6 | 4.3 | 0.00 | 0.01 | 0.01 | 69 | 1007.8 |
| 20260504041100 | 67 | 355 | 2.6 | 6.1 | 0.00 | 0.01 | 0.01 | 57 | 1007.7 |
| 20260504040024 | 68 | 333 | 2.6 | 4.3 | 0.00 | 0.01 | 0.01 | 55 | 1007.8 |
| 20260504035028 | 68 | 3 | 2.6 | 4.3 | 0.00 | 0.01 | 0.01 | 55 | 1007.9 |
| 20260504034032 | 68 | 331 | 3.5 | 4.3 | 0.00 | 0.01 | 0.01 | 55 | 1008.0 |
| 20260504033058 | 68 | 334 | 2.6 | 3.5 | 0.00 | 0.01 | 0.01 | 53 | 1008.0 |
| 20260504032022 | 69 | 338 | 2.6 | 3.5 | 0.00 | 0.01 | 0.01 | 52 | 1008.2 |
| 20260504031026 | 69 | 344 | 3.5 | 4.3 | 0.00 | 0.01 | 0.01 | 51 | 1008.2 |
| 20260504030031 | 69 | 352 | 3.5 | 6.1 | 0.00 | 0.01 | 0.01 | 52 | 1008.3 |
| 20260504025016 | 70 | 323 | 2.6 | 4.3 | 0.00 | 0.01 | 0.01 | 51 | 1008.1 |
| 20260504024021 | 70 | 329 | 2.6 | 4.3 | 0.00 | 0.01 | 0.01 | 51 | 1008.1 |
| 20260504023025 | 70 | 330 | 2.6 | 3.5 | 0.00 | 0.01 | 0.01 | 51 | 1008.2 |
| 20260504022023 | 70 | 350 | 2.6 | 3.5 | 0.00 | 0.01 | 0.01 | 52 | 1008.2 |
| 20260504021015 | 70 | 0.0 | 0.0 | 0.00 | 0.01 | 0.01 | 52 | 1008.0 | |
| 20260504020040 | 70 | 340 | 0.9 | 2.6 | 0.00 | 0.01 | 0.01 | 50 | 1007.8 |
| 20260504015017 | 71 | 0.0 | 0.0 | 0.00 | 0.01 | 0.01 | 50 | 1007.8 | |
| 20260504014016 | 71 | 23 | 0.0 | 2.6 | 0.00 | 0.01 | 0.01 | 49 | 1007.7 |
| 20260504013032 | 71 | 13 | 1.7 | 3.5 | 0.00 | 0.01 | 0.01 | 48 | 1007.7 |
| 20260504012018 | 71 | 14 | 1.7 | 4.3 | 0.00 | 0.01 | 0.01 | 47 | 1007.5 |
| 20260504011022 | 72 | 1 | 1.7 | 2.6 | 0.00 | 0.01 | 0.01 | 47 | 1007.5 |
| 20260504010027 | 72 | 47 | 1.7 | 3.5 | 0.00 | 0.01 | 0.01 | 46 | 1007.3 |
| 20260504005051 | 73 | 4 | 1.7 | 3.5 | 0.00 | 0.01 | 0.01 | 46 | 1007.4 |
| 20260504004017 | 73 | 360 | 2.6 | 3.5 | 0.00 | 0.01 | 0.01 | 44 | 1007.5 |
| 20260504003021 | 74 | 23 | 2.6 | 4.3 | 0.00 | 0.01 | 0.01 | 43 | 1007.5 |
| 20260504002025 | 74 | 349 | 1.7 | 4.3 | 0.00 | 0.01 | 0.01 | 42 | 1007.5 |
| 20260504001029 | 75 | 6 | 3.5 | 4.3 | 0.00 | 0.01 | 0.01 | 42 | 1007.7 |
| 20260504000035 | 75 | 328 | 2.6 | 4.3 | 0.00 | 0.01 | 0.01 | 40 | 1007.7 |
| 20260503235019 | 76 | 328 | 1.7 | 3.5 | 0.00 | 0.01 | 0.01 | 40 | 1007.5 |
| 20260503234023 | 76 | 5 | 3.5 | 5.2 | 0.00 | 0.01 | 0.01 | 38 | 1007.6 |
| 20260503233028 | 77 | 358 | 3.5 | 6.1 | 0.00 | 0.01 | 0.01 | 38 | 1007.8 |
| 20260503232032 | 77 | 7 | 3.5 | 5.2 | 0.00 | 0.01 | 0.01 | 37 | 1008.0 |
| 20260503231018 | 77 | 16 | 4.3 | 7.8 | 0.00 | 0.01 | 0.01 | 37 | 1007.8 |
| 20260503230022 | 77 | 357 | 3.5 | 7.0 | 0.00 | 0.01 | 0.01 | 37 | 1008.2 |
| 20260503225046 | 77 | 3 | 4.3 | 7.0 | 0.00 | 0.01 | 0.01 | 36 | 1008.2 |
| 20260503224030 | 78 | 334 | 3.5 | 7.0 | 0.00 | 0.01 | 0.01 | 36 | 1008.2 |
| 20260503223016 | 78 | 47 | 3.5 | 6.1 | 0.00 | 0.01 | 0.01 | 35 | 1008.3 |
| 20260503222020 | 79 | 24 | 3.5 | 5.2 | 0.00 | 0.01 | 0.01 | 35 | 1008.3 |
| 20260503221024 | 79 | 46 | 2.6 | 5.2 | 0.00 | 0.01 | 0.01 | 36 | 1008.3 |
| 20260503220028 | 78 | 352 | 5.2 | 7.0 | 0.00 | 0.01 | 0.01 | 37 | 1008.3 |
| 20260503215033 | 78 | 358 | 5.2 | 7.8 | 0.00 | 0.01 | 0.01 | 36 | 1008.8 |
| 20260503214018 | 77 | 335 | 6.1 | 7.8 | 0.00 | 0.01 | 0.01 | 37 | 1008.9 |
| 20260503213023 | 78 | 360 | 3.5 | 6.1 | 0.00 | 0.01 | 0.01 | 37 | 1009.0 |
| 20260503212027 | 77 | 6 | 6.1 | 7.8 | 0.00 | 0.01 | 0.01 | 36 | 1009.2 |
| 20260503211025 | 77 | 344 | 7.0 | 10.4 | 0.00 | 0.01 | 0.01 | 35 | 1009.3 |
| 20260503210017 | 77 | 341 | 7.0 | 10.4 | 0.00 | 0.01 | 0.01 | 36 | 1009.2 |
| 20260503205021 | 77 | 9 | 5.2 | 7.8 | 0.00 | 0.01 | 0.01 | 37 | 1009.5 |
| 20260503204019 | 77 | 23 | 6.1 | 7.8 | 0.00 | 0.01 | 0.01 | 36 | 1009.7 |
| 20260503203018 | 76 | 13 | 6.1 | 7.8 | 0.00 | 0.01 | 0.01 | 37 | 1009.9 |
| 20260503202016 | 76 | 344 | 7.0 | 11.3 | 0.00 | 0.01 | 0.01 | 36 | 1010.3 |
| 20260503201020 | 76 | 343 | 6.1 | 7.8 | 0.00 | 0.01 | 0.01 | 36 | 1010.6 |
| 20260503200024 | 75 | 26 | 6.1 | 7.8 | 0.00 | 0.01 | 0.01 | 36 | 1010.9 |
| 20260503195048 | 74 | 351 | 7.8 | 11.3 | 0.00 | 0.01 | 0.01 | 37 | 1011.1 |
| 20260503194032 | 74 | 18 | 7.0 | 7.8 | 0.00 | 0.01 | 0.01 | 37 | 1011.3 |
| 20260503193018 | 75 | 338 | 6.1 | 7.8 | 0.00 | 0.01 | 0.01 | 39 | 1011.5 |
| 20260503192023 | 73 | 350 | 6.1 | 7.8 | 0.00 | 0.01 | 0.01 | 39 | 1011.9 |
| 20260503191027 | 73 | 336 | 6.1 | 7.8 | 0.00 | 0.01 | 0.01 | 39 | 1012.0 |
| 20260503190031 | 73 | 338 | 7.0 | 7.8 | 0.00 | 0.01 | 0.01 | 38 | 1012.4 |
| 20260503185017 | 73 | 341 | 6.1 | 7.8 | 0.00 | 0.01 | 0.01 | 39 | 1012.6 |
| 20260503184021 | 73 | 344 | 6.1 | 8.7 | 0.01 | 0.01 | 0.01 | 39 | 1012.8 |
| 20260503183026 | 73 | 27 | 5.2 | 6.1 | 0.01 | 0.01 | 0.01 | 39 | 1012.9 |
| 20260503182030 | 73 | 18 | 5.2 | 8.7 | 0.01 | 0.01 | 0.01 | 38 | 1013.5 |
| 20260503181035 | 71 | 353 | 7.0 | 10.4 | 0.01 | 0.01 | 0.01 | 39 | 1014.0 |